owner,sensor,date,latitude,longitude,air_temperature,qcFlag 
TABS,ioos:station:wmo:42045:1,2003-06-01T00:10:00Z,26.2168,-96.4998,27.4,11144222 
TABS,ioos:station:wmo:42045:1,2003-06-01T00:40:00Z,26.2168,-96.4998,27.4,11144222 
TABS,ioos:station:wmo:42045:1,2003-06-01T01:10:00Z,26.2168,-96.4998,27.4,11144222 
TABS,ioos:station:wmo:42045:1,2003-06-01T01:40:00Z,26.2168,-96.4998,27.4,11144222 
TABS,ioos:station:wmo:42045:1,2003-06-01T02:10:00Z,26.2168,-96.4998,27.4,11144222 
TABS,ioos:station:wmo:42045:1,2003-06-01T02:39:00Z,26.2168,-96.4998,27.4,11144222 
TABS,ioos:station:wmo:42045:1,2003-06-01T03:09:00Z,26.2168,-96.4998,27.3,11144222 
TABS,ioos:station:wmo:42045:1,2003-06-01T03:40:00Z,26.2168,-96.4998,27.4,11144222 
TABS,ioos:station:wmo:42045:1,2003-06-01T04:09:00Z,26.2168,-96.4998,27.3,11144222 
TABS,ioos:station:wmo:42045:1,2003-06-01T04:40:00Z,26.2168,-96.4998,27.3,11144222 
TABS,ioos:station:wmo:42045:1,2003-06-01T05:10:00Z,26.2168,-96.4998,27.3,11144222 
TABS,ioos:station:wmo:42045:1,2003-06-01T05:40:00Z,26.2168,-96.4998,27.2,11144222 
TABS,ioos:station:wmo:42045:1,2003-06-01T06:10:00Z,26.2168,-96.4998,27.2,11144222 
TABS,ioos:station:wmo:42045:1,2003-06-01T06:40:00Z,26.2168,-96.4998,27.2,11144222 
TABS,ioos:station:wmo:42045:1,2003-06-01T07:10:00Z,26.2168,-96.4998,27.1,11144222 
TABS,ioos:station:wmo:42045:1,2003-06-01T07:40:00Z,26.2168,-96.4998,27.1,11144222 
TABS,ioos:station:wmo:42045:1,2003-06-01T08:10:00Z,26.2168,-96.4998,27.1,11144222 
TABS,ioos:station:wmo:42045:1,2003-06-01T08:40:00Z,26.2168,-96.4998,27.1,11144222 
TABS,ioos:station:wmo:42045:1,2003-06-01T09:10:00Z,26.2168,-96.4998,27.1,11144222 
TABS,ioos:station:wmo:42045:1,2003-06-01T09:40:00Z,26.2168,-96.4998,27.1,11144222 
TABS,ioos:station:wmo:42045:1,2003-06-01T10:10:00Z,26.2168,-96.4998,27.1,11144222 
TABS,ioos:station:wmo:42045:1,2003-06-01T10:40:00Z,26.2168,-96.4998,27.1,11144222 
TABS,ioos:station:wmo:42045:1,2003-06-01T11:10:00Z,26.2168,-96.4998,27.2,11144222 
TABS,ioos:station:wmo:42045:1,2003-06-01T11:40:00Z,26.2168,-96.4998,27.2,11144222 
TABS,ioos:station:wmo:42045:1,2003-06-01T12:10:00Z,26.2168,-96.4998,27.3,11144222 
TABS,ioos:station:wmo:42045:1,2003-06-01T12:39:00Z,26.2168,-96.4998,27.3,11144222 
TABS,ioos:station:wmo:42045:1,2003-06-01T13:10:00Z,26.2168,-96.4998,27.4,11144222 
TABS,ioos:station:wmo:42045:1,2003-06-01T13:40:00Z,26.2168,-96.4998,27.4,11144222 
TABS,ioos:station:wmo:42045:1,2003-06-01T14:10:00Z,26.2168,-96.4998,27.5,11144222 
TABS,ioos:station:wmo:42045:1,2003-06-01T14:39:00Z,26.2168,-96.4998,27.4,11144222 
TABS,ioos:station:wmo:42045:1,2003-06-01T15:09:00Z,26.2168,-96.4998,27.6,11144222 
TABS,ioos:station:wmo:42045:1,2003-06-01T16:09:00Z,26.2168,-96.4998,27.6,11144222 
TABS,ioos:station:wmo:42045:1,2003-06-01T16:39:00Z,26.2168,-96.4998,27.6,11144222 
TABS,ioos:station:wmo:42045:1,2003-06-01T17:09:00Z,26.2168,-96.4998,27.6,11144222 
TABS,ioos:station:wmo:42045:1,2003-06-01T17:39:00Z,26.2168,-96.4998,27.6,11144222 
TABS,ioos:station:wmo:42045:1,2003-06-01T18:09:00Z,26.2168,-96.4998,27.6,11144222 
TABS,ioos:station:wmo:42045:1,2003-06-01T18:39:00Z,26.2168,-96.4998,27.6,11144222 
TABS,ioos:station:wmo:42045:1,2003-06-01T19:09:00Z,26.2168,-96.4998,27.5,11144222 
TABS,ioos:station:wmo:42045:1,2003-06-01T19:39:00Z,26.2168,-96.4998,27.5,11144222 
TABS,ioos:station:wmo:42045:1,2003-06-01T20:09:00Z,26.2168,-96.4998,27.8,11144222 
TABS,ioos:station:wmo:42045:1,2003-06-01T20:39:00Z,26.2168,-96.4998,27.7,11144222 
TABS,ioos:station:wmo:42045:1,2003-06-01T21:09:00Z,26.2168,-96.4998,27.8,11144222 
TABS,ioos:station:wmo:42045:1,2003-06-01T21:39:00Z,26.2168,-96.4998,27.7,11144222 
TABS,ioos:station:wmo:42045:1,2003-06-01T22:09:00Z,26.2168,-96.4998,27.7,11144222 
TABS,ioos:station:wmo:42045:1,2003-06-01T22:39:00Z,26.2168,-96.4998,27.8,11144222 
TABS,ioos:station:wmo:42045:1,2003-06-01T23:09:00Z,26.2168,-96.4998,27.8,11144222 
TABS,ioos:station:wmo:42045:1,2003-06-01T23:39:00Z,26.2168,-96.4998,27.9,11144222 
TABS,ioos:station:wmo:42045:1,2003-06-02T00:09:00Z,26.2168,-96.4998,27.7,11144222 
TABS,ioos:station:wmo:42045:1,2003-06-02T00:39:00Z,26.2168,-96.4998,27.6,11144222 
TABS,ioos:station:wmo:42045:1,2003-06-02T01:09:00Z,26.2168,-96.4998,27.5,11144222 
TABS,ioos:station:wmo:42045:1,2003-06-02T01:39:00Z,26.2168,-96.4998,27.6,11144222 
TABS,ioos:station:wmo:42045:1,2003-06-02T02:09:00Z,26.2168,-96.4998,27.5,11144222 
TABS,ioos:station:wmo:42045:1,2003-06-02T02:39:00Z,26.2168,-96.4998,27.4,11144222 
TABS,ioos:station:wmo:42045:1,2003-06-02T03:09:00Z,26.2168,-96.4998,27.4,11144222 
TABS,ioos:station:wmo:42045:1,2003-06-02T03:39:00Z,26.2168,-96.4998,27.4,11144222 
TABS,ioos:station:wmo:42045:1,2003-06-02T04:09:00Z,26.2168,-96.4998,27.4,11144222 
TABS,ioos:station:wmo:42045:1,2003-06-02T04:39:00Z,26.2168,-96.4998,27.4,11144222 
TABS,ioos:station:wmo:42045:1,2003-06-02T05:09:00Z,26.2168,-96.4998,27.4,11144222 
TABS,ioos:station:wmo:42045:1,2003-06-02T05:39:00Z,26.2168,-96.4998,27.3,11144222 
TABS,ioos:station:wmo:42045:1,2003-06-02T06:09:00Z,26.2168,-96.4998,27.3,11144222 
TABS,ioos:station:wmo:42045:1,2003-06-02T06:39:00Z,26.2168,-96.4998,27.4,11144222 
TABS,ioos:station:wmo:42045:1,2003-06-02T07:09:00Z,26.2168,-96.4998,27.4,11144222 
TABS,ioos:station:wmo:42045:1,2003-06-02T07:39:00Z,26.2168,-96.4998,27.4,11144222 
TABS,ioos:station:wmo:42045:1,2003-06-02T08:09:00Z,26.2168,-96.4998,27.5,11144222 
TABS,ioos:station:wmo:42045:1,2003-06-02T08:39:00Z,26.2168,-96.4998,27.5,11144222 
TABS,ioos:station:wmo:42045:1,2003-06-02T09:09:00Z,26.2168,-96.4998,27.5,11144222 
TABS,ioos:station:wmo:42045:1,2003-06-02T09:39:00Z,26.2168,-96.4998,27.5,11144222 
TABS,ioos:station:wmo:42045:1,2003-06-02T10:09:00Z,26.2168,-96.4998,27.5,11144222 
TABS,ioos:station:wmo:42045:1,2003-06-02T10:39:00Z,26.2168,-96.4998,27.5,11144222 
TABS,ioos:station:wmo:42045:1,2003-06-02T11:09:00Z,26.2168,-96.4998,27.5,11144222 
TABS,ioos:station:wmo:42045:1,2003-06-02T11:39:00Z,26.2168,-96.4998,27.5,11144222 
TABS,ioos:station:wmo:42045:1,2003-06-02T12:09:00Z,26.2168,-96.4998,27.6,11144222 
TABS,ioos:station:wmo:42045:1,2003-06-02T12:39:00Z,26.2168,-96.4998,27.6,11144222 
TABS,ioos:station:wmo:42045:1,2003-06-02T13:09:00Z,26.2168,-96.4998,27.7,11144222 
TABS,ioos:station:wmo:42045:1,2003-06-02T13:39:00Z,26.2168,-96.4998,27.8,11144222 
TABS,ioos:station:wmo:42045:1,2003-06-02T14:09:00Z,26.2168,-96.4998,27.8,11144222 
TABS,ioos:station:wmo:42045:1,2003-06-02T14:39:00Z,26.2168,-96.4998,27.9,11144222 
TABS,ioos:station:wmo:42045:1,2003-06-02T15:09:00Z,26.2168,-96.4998,27.9,11144222 
TABS,ioos:station:wmo:42045:1,2003-06-02T16:09:00Z,26.2168,-96.4998,28.1,11144222 
TABS,ioos:station:wmo:42045:1,2003-06-02T16:39:00Z,26.2168,-96.4998,28.0,11144222 
TABS,ioos:station:wmo:42045:1,2003-06-02T17:09:00Z,26.2168,-96.4998,28.0,11144222 
TABS,ioos:station:wmo:42045:1,2003-06-02T17:39:00Z,26.2168,-96.4998,28.0,11144222 
TABS,ioos:station:wmo:42045:1,2003-06-02T18:09:00Z,26.2168,-96.4998,28.1,11144222 
TABS,ioos:station:wmo:42045:1,2003-06-02T18:39:00Z,26.2168,-96.4998,28.0,11144222 
TABS,ioos:station:wmo:42045:1,2003-06-02T19:09:00Z,26.2168,-96.4998,28.0,11144222 
TABS,ioos:station:wmo:42045:1,2003-06-02T19:39:00Z,26.2168,-96.4998,28.1,11144222 
TABS,ioos:station:wmo:42045:1,2003-06-02T20:09:00Z,26.2168,-96.4998,28.1,11144222 
TABS,ioos:station:wmo:42045:1,2003-06-02T20:39:00Z,26.2168,-96.4998,28.2,11144222 
TABS,ioos:station:wmo:42045:1,2003-06-02T21:09:00Z,26.2168,-96.4998,28.3,11144222 
TABS,ioos:station:wmo:42045:1,2003-06-02T21:39:00Z,26.2168,-96.4998,28.3,11144222 
TABS,ioos:station:wmo:42045:1,2003-06-02T22:09:00Z,26.2168,-96.4998,28.2,11144222 
TABS,ioos:station:wmo:42045:1,2003-06-02T22:39:00Z,26.2168,-96.4998,28.3,11144222 
TABS,ioos:station:wmo:42045:1,2003-06-02T23:09:00Z,26.2168,-96.4998,28.3,11144222 
TABS,ioos:station:wmo:42045:1,2003-06-02T23:39:00Z,26.2168,-96.4998,28.2,11144222 
TABS,ioos:station:wmo:42045:1,2003-06-03T00:09:00Z,26.2168,-96.4998,28.1,11144222 
TABS,ioos:station:wmo:42045:1,2003-06-03T00:39:00Z,26.2168,-96.4998,28.0,11144222 
TABS,ioos:station:wmo:42045:1,2003-06-03T01:09:00Z,26.2168,-96.4998,28.0,11144222 
TABS,ioos:station:wmo:42045:1,2003-06-03T01:39:00Z,26.2168,-96.4998,27.9,11144222 
TABS,ioos:station:wmo:42045:1,2003-06-03T02:09:00Z,26.2168,-96.4998,27.9,11144222 
TABS,ioos:station:wmo:42045:1,2003-06-03T02:39:00Z,26.2168,-96.4998,27.9,11144222 
TABS,ioos:station:wmo:42045:1,2003-06-03T03:09:00Z,26.2168,-96.4998,27.8,11144222 
TABS,ioos:station:wmo:42045:1,2003-06-03T03:39:00Z,26.2168,-96.4998,27.8,11144222 
TABS,ioos:station:wmo:42045:1,2003-06-03T04:09:00Z,26.2168,-96.4998,27.8,11144222 
TABS,ioos:station:wmo:42045:1,2003-06-03T04:39:00Z,26.2168,-96.4998,27.8,11144222 
TABS,ioos:station:wmo:42045:1,2003-06-03T05:09:00Z,26.2168,-96.4998,27.8,11144222 
TABS,ioos:station:wmo:42045:1,2003-06-03T05:39:00Z,26.2168,-96.4998,27.7,11144222 
TABS,ioos:station:wmo:42045:1,2003-06-03T06:09:00Z,26.2168,-96.4998,27.7,11144222 
TABS,ioos:station:wmo:42045:1,2003-06-03T06:39:00Z,26.2168,-96.4998,27.6,11144222 
TABS,ioos:station:wmo:42045:1,2003-06-03T07:09:00Z,26.2168,-96.4998,27.7,11144222 
TABS,ioos:station:wmo:42045:1,2003-06-03T07:39:00Z,26.2168,-96.4998,27.6,11144222 
TABS,ioos:station:wmo:42045:1,2003-06-03T08:09:00Z,26.2168,-96.4998,27.7,11144222 
TABS,ioos:station:wmo:42045:1,2003-06-03T08:39:00Z,26.2168,-96.4998,27.7,11144222 
TABS,ioos:station:wmo:42045:1,2003-06-03T09:09:00Z,26.2168,-96.4998,27.7,11144222 
TABS,ioos:station:wmo:42045:1,2003-06-03T09:39:00Z,26.2168,-96.4998,27.7,11144222 
TABS,ioos:station:wmo:42045:1,2003-06-03T10:09:00Z,26.2168,-96.4998,27.6,11144222 
TABS,ioos:station:wmo:42045:1,2003-06-03T10:39:00Z,26.2168,-96.4998,27.6,11144222 
TABS,ioos:station:wmo:42045:1,2003-06-03T11:09:00Z,26.2168,-96.4998,27.6,11144222 
TABS,ioos:station:wmo:42045:1,2003-06-03T11:39:00Z,26.2168,-96.4998,27.6,11144222 
TABS,ioos:station:wmo:42045:1,2003-06-03T12:09:00Z,26.2168,-96.4998,27.7,11144222 
TABS,ioos:station:wmo:42045:1,2003-06-03T12:39:00Z,26.2168,-96.4998,27.8,11144222 
TABS,ioos:station:wmo:42045:1,2003-06-03T13:09:00Z,26.2168,-96.4998,27.8,11144222 
TABS,ioos:station:wmo:42045:1,2003-06-03T13:39:00Z,26.2168,-96.4998,28.0,11144222 
TABS,ioos:station:wmo:42045:1,2003-06-03T14:09:00Z,26.2168,-96.4998,28.1,11144222 
TABS,ioos:station:wmo:42045:1,2003-06-03T14:39:00Z,26.2168,-96.4998,28.1,11144222 
TABS,ioos:station:wmo:42045:1,2003-06-03T15:09:00Z,26.2168,-96.4998,28.1,11144222 
TABS,ioos:station:wmo:42045:1,2003-06-03T16:09:00Z,26.2168,-96.4998,28.0,11144222 
TABS,ioos:station:wmo:42045:1,2003-06-03T16:39:00Z,26.2168,-96.4998,28.0,11144222 
TABS,ioos:station:wmo:42045:1,2003-06-03T17:09:00Z,26.2168,-96.4998,28.0,11144222 
TABS,ioos:station:wmo:42045:1,2003-06-03T17:39:00Z,26.2168,-96.4998,28.2,11144222 
TABS,ioos:station:wmo:42045:1,2003-06-03T18:09:00Z,26.2168,-96.4998,28.2,11144222 
TABS,ioos:station:wmo:42045:1,2003-06-03T18:39:00Z,26.2168,-96.4998,28.2,11144222 
TABS,ioos:station:wmo:42045:1,2003-06-03T19:09:00Z,26.2168,-96.4998,28.1,11144222 
TABS,ioos:station:wmo:42045:1,2003-06-03T19:39:00Z,26.2168,-96.4998,28.1,11144222 
TABS,ioos:station:wmo:42045:1,2003-06-03T20:09:00Z,26.2168,-96.4998,28.1,11144222 
TABS,ioos:station:wmo:42045:1,2003-06-03T20:39:00Z,26.2168,-96.4998,28.1,11144222 
TABS,ioos:station:wmo:42045:1,2003-06-03T21:09:00Z,26.2168,-96.4998,28.2,11144222 
TABS,ioos:station:wmo:42045:1,2003-06-03T21:39:00Z,26.2168,-96.4998,28.2,11144222 
TABS,ioos:station:wmo:42045:1,2003-06-03T22:09:00Z,26.2168,-96.4998,28.2,11144222 
TABS,ioos:station:wmo:42045:1,2003-06-03T22:39:00Z,26.2168,-96.4998,28.2,11144222 
TABS,ioos:station:wmo:42045:1,2003-06-03T23:09:00Z,26.2168,-96.4998,28.2,11144222 
TABS,ioos:station:wmo:42045:1,2003-06-03T23:39:00Z,26.2168,-96.4998,28.2,11144222 
TABS,ioos:station:wmo:42045:1,2003-06-04T00:09:00Z,26.2168,-96.4998,28.2,11144222 
TABS,ioos:station:wmo:42045:1,2003-06-04T00:39:00Z,26.2168,-96.4998,28.1,11144222 
TABS,ioos:station:wmo:42045:1,2003-06-04T01:09:00Z,26.2168,-96.4998,28.1,11144222 
TABS,ioos:station:wmo:42045:1,2003-06-04T01:39:00Z,26.2168,-96.4998,28.0,11144222 
TABS,ioos:station:wmo:42045:1,2003-06-04T02:09:00Z,26.2168,-96.4998,28.0,11144222 
TABS,ioos:station:wmo:42045:1,2003-06-04T02:39:00Z,26.2168,-96.4998,27.9,11144222 
TABS,ioos:station:wmo:42045:1,2003-06-04T03:09:00Z,26.2168,-96.4998,27.9,11144222 
TABS,ioos:station:wmo:42045:1,2003-06-04T03:39:00Z,26.2168,-96.4998,27.9,11144222 
TABS,ioos:station:wmo:42045:1,2003-06-04T04:09:00Z,26.2168,-96.4998,28.0,11144222 
TABS,ioos:station:wmo:42045:1,2003-06-04T04:39:00Z,26.2168,-96.4998,27.9,11144222 
TABS,ioos:station:wmo:42045:1,2003-06-04T05:09:00Z,26.2168,-96.4998,27.9,11144222 
TABS,ioos:station:wmo:42045:1,2003-06-04T05:39:00Z,26.2168,-96.4998,27.8,11144222 
TABS,ioos:station:wmo:42045:1,2003-06-04T06:09:00Z,26.2168,-96.4998,27.9,11144222 
TABS,ioos:station:wmo:42045:1,2003-06-04T06:39:00Z,26.2168,-96.4998,27.9,11144222 
TABS,ioos:station:wmo:42045:1,2003-06-04T07:09:00Z,26.2168,-96.4998,27.9,11144222 
TABS,ioos:station:wmo:42045:1,2003-06-04T07:39:00Z,26.2168,-96.4998,27.9,11144222 
TABS,ioos:station:wmo:42045:1,2003-06-04T08:09:00Z,26.2168,-96.4998,27.9,11144222 
TABS,ioos:station:wmo:42045:1,2003-06-04T08:39:00Z,26.2168,-96.4998,27.8,11144222 
TABS,ioos:station:wmo:42045:1,2003-06-04T09:09:00Z,26.2168,-96.4998,27.8,11144222 
TABS,ioos:station:wmo:42045:1,2003-06-04T09:39:00Z,26.2168,-96.4998,27.7,11144222 
TABS,ioos:station:wmo:42045:1,2003-06-04T10:09:00Z,26.2168,-96.4998,27.7,11144222 
TABS,ioos:station:wmo:42045:1,2003-06-04T10:39:00Z,26.2168,-96.4998,27.7,11144222 
TABS,ioos:station:wmo:42045:1,2003-06-04T11:09:00Z,26.2168,-96.4998,27.8,11144222 
TABS,ioos:station:wmo:42045:1,2003-06-04T11:39:00Z,26.2168,-96.4998,27.8,11144222 
TABS,ioos:station:wmo:42045:1,2003-06-04T12:09:00Z,26.2168,-96.4998,27.9,11144222 
TABS,ioos:station:wmo:42045:1,2003-06-04T12:39:00Z,26.2168,-96.4998,28.0,11144222 
TABS,ioos:station:wmo:42045:1,2003-06-04T13:09:00Z,26.2168,-96.4998,28.2,11144222 
TABS,ioos:station:wmo:42045:1,2003-06-04T13:39:00Z,26.2168,-96.4998,28.0,11144222 
TABS,ioos:station:wmo:42045:1,2003-06-04T14:09:00Z,26.2168,-96.4998,28.0,11144222 
TABS,ioos:station:wmo:42045:1,2003-06-04T14:39:00Z,26.2168,-96.4998,28.0,11144222 
TABS,ioos:station:wmo:42045:1,2003-06-04T15:09:00Z,26.2168,-96.4998,28.2,11144222 
TABS,ioos:station:wmo:42045:1,2003-06-04T15:39:00Z,26.2168,-96.4998,28.1,11144222 
TABS,ioos:station:wmo:42045:1,2003-06-04T16:09:00Z,26.2168,-96.4998,28.1,11144222 
TABS,ioos:station:wmo:42045:1,2003-06-04T16:39:00Z,26.2168,-96.4998,28.2,11144222 
TABS,ioos:station:wmo:42045:1,2003-06-04T17:09:00Z,26.2168,-96.4998,28.2,11144222 
TABS,ioos:station:wmo:42045:1,2003-06-04T17:39:00Z,26.2168,-96.4998,28.1,11144222 
TABS,ioos:station:wmo:42045:1,2003-06-04T18:09:00Z,26.2168,-96.4998,28.4,11144222 
TABS,ioos:station:wmo:42045:1,2003-06-04T18:39:00Z,26.2168,-96.4998,28.3,11144222 
TABS,ioos:station:wmo:42045:1,2003-06-04T19:09:00Z,26.2168,-96.4998,27.7,11144222 
TABS,ioos:station:wmo:42045:1,2003-06-04T19:39:00Z,26.2168,-96.4998,28.4,11144222 
TABS,ioos:station:wmo:42045:1,2003-06-04T20:09:00Z,26.2168,-96.4998,28.5,11144222 
TABS,ioos:station:wmo:42045:1,2003-06-04T20:39:00Z,26.2168,-96.4998,28.4,11144222 
TABS,ioos:station:wmo:42045:1,2003-06-04T21:09:00Z,26.2168,-96.4998,28.5,11144222 
TABS,ioos:station:wmo:42045:1,2003-06-04T21:39:00Z,26.2168,-96.4998,28.7,11144222 
TABS,ioos:station:wmo:42045:1,2003-06-04T22:09:00Z,26.2168,-96.4998,28.7,11144222 
TABS,ioos:station:wmo:42045:1,2003-06-04T22:39:00Z,26.2168,-96.4998,28.7,11144222 
TABS,ioos:station:wmo:42045:1,2003-06-04T23:09:00Z,26.2168,-96.4998,28.6,11144222 
TABS,ioos:station:wmo:42045:1,2003-06-04T23:39:00Z,26.2168,-96.4998,28.4,11144222 
TABS,ioos:station:wmo:42045:1,2003-06-05T00:09:00Z,26.2168,-96.4998,28.4,11144222 
TABS,ioos:station:wmo:42045:1,2003-06-05T00:39:00Z,26.2168,-96.4998,28.5,11144222 
TABS,ioos:station:wmo:42045:1,2003-06-05T01:09:00Z,26.2168,-96.4998,28.3,11144222 
TABS,ioos:station:wmo:42045:1,2003-06-05T01:39:00Z,26.2168,-96.4998,28.3,11144222 
TABS,ioos:station:wmo:42045:1,2003-06-05T02:09:00Z,26.2168,-96.4998,28.3,11144222 
TABS,ioos:station:wmo:42045:1,2003-06-05T02:39:00Z,26.2168,-96.4998,28.2,11144222 
TABS,ioos:station:wmo:42045:1,2003-06-05T03:09:00Z,26.2168,-96.4998,28.3,11144222 
TABS,ioos:station:wmo:42045:1,2003-06-05T03:39:00Z,26.2168,-96.4998,28.1,11144222 
TABS,ioos:station:wmo:42045:1,2003-06-05T04:09:00Z,26.2168,-96.4998,28.2,11144222 
TABS,ioos:station:wmo:42045:1,2003-06-05T04:39:00Z,26.2168,-96.4998,28.1,11144222 
TABS,ioos:station:wmo:42045:1,2003-06-05T05:09:00Z,26.2168,-96.4998,28.1,11144222 
TABS,ioos:station:wmo:42045:1,2003-06-05T05:39:00Z,26.2168,-96.4998,28.1,11144222 
TABS,ioos:station:wmo:42045:1,2003-06-05T06:09:00Z,26.2168,-96.4998,28.1,11144222 
TABS,ioos:station:wmo:42045:1,2003-06-05T06:39:00Z,26.2168,-96.4998,28.1,11144222 
TABS,ioos:station:wmo:42045:1,2003-06-05T07:09:00Z,26.2168,-96.4998,28.1,11144222 
TABS,ioos:station:wmo:42045:1,2003-06-05T07:39:00Z,26.2168,-96.4998,28.1,11144222 
TABS,ioos:station:wmo:42045:1,2003-06-05T08:09:00Z,26.2168,-96.4998,28.0,11144222 
TABS,ioos:station:wmo:42045:1,2003-06-05T08:39:00Z,26.2168,-96.4998,28.1,11144222 
TABS,ioos:station:wmo:42045:1,2003-06-05T09:09:00Z,26.2168,-96.4998,28.1,11144222 
TABS,ioos:station:wmo:42045:1,2003-06-05T09:39:00Z,26.2168,-96.4998,28.0,11144222 
TABS,ioos:station:wmo:42045:1,2003-06-05T10:09:00Z,26.2168,-96.4998,28.0,11144222 
TABS,ioos:station:wmo:42045:1,2003-06-05T10:39:00Z,26.2168,-96.4998,28.0,11144222 
TABS,ioos:station:wmo:42045:1,2003-06-05T11:09:00Z,26.2168,-96.4998,28.0,11144222 
TABS,ioos:station:wmo:42045:1,2003-06-05T11:39:00Z,26.2168,-96.4998,27.7,11144222 
TABS,ioos:station:wmo:42045:1,2003-06-05T12:09:00Z,26.2168,-96.4998,27.5,11144222 
TABS,ioos:station:wmo:42045:1,2003-06-05T12:39:00Z,26.2168,-96.4998,27.9,11144222 
TABS,ioos:station:wmo:42045:1,2003-06-05T13:09:00Z,26.2168,-96.4998,28.2,11144222 
TABS,ioos:station:wmo:42045:1,2003-06-05T13:39:00Z,26.2168,-96.4998,27.5,11144222 
TABS,ioos:station:wmo:42045:1,2003-06-05T14:09:00Z,26.2168,-96.4998,27.7,11144222 
TABS,ioos:station:wmo:42045:1,2003-06-05T14:39:00Z,26.2168,-96.4998,27.6,11144222 
TABS,ioos:station:wmo:42045:1,2003-06-05T15:09:00Z,26.2168,-96.4998,27.8,11144222 
TABS,ioos:station:wmo:42045:1,2003-06-05T15:39:00Z,26.2168,-96.4998,27.2,11144222 
TABS,ioos:station:wmo:42045:1,2003-06-05T16:09:00Z,26.2168,-96.4998,26.9,11144222 
TABS,ioos:station:wmo:42045:1,2003-06-05T16:39:00Z,26.2168,-96.4998,26.8,11144222 
TABS,ioos:station:wmo:42045:1,2003-06-05T17:09:00Z,26.2168,-96.4998,27.3,11144222 
TABS,ioos:station:wmo:42045:1,2003-06-05T17:39:00Z,26.2168,-96.4998,27.1,11144222 
TABS,ioos:station:wmo:42045:1,2003-06-05T18:09:00Z,26.2168,-96.4998,26.9,11144222 
TABS,ioos:station:wmo:42045:1,2003-06-05T18:39:00Z,26.2168,-96.4998,26.8,11144222 
TABS,ioos:station:wmo:42045:1,2003-06-05T19:09:00Z,26.2168,-96.4998,26.7,11144222 
TABS,ioos:station:wmo:42045:1,2003-06-05T19:39:00Z,26.2168,-96.4998,26.9,11144222 
TABS,ioos:station:wmo:42045:1,2003-06-05T20:09:00Z,26.2168,-96.4998,26.9,11144222 
TABS,ioos:station:wmo:42045:1,2003-06-05T20:39:00Z,26.2168,-96.4998,27.0,11144222 
TABS,ioos:station:wmo:42045:1,2003-06-05T21:09:00Z,26.2168,-96.4998,27.3,11144222 
TABS,ioos:station:wmo:42045:1,2003-06-05T21:39:00Z,26.2168,-96.4998,27.3,11144222 
TABS,ioos:station:wmo:42045:1,2003-06-05T22:09:00Z,26.2168,-96.4998,27.2,11144222 
TABS,ioos:station:wmo:42045:1,2003-06-05T22:39:00Z,26.2168,-96.4998,27.2,11144222 
TABS,ioos:station:wmo:42045:1,2003-06-05T23:09:00Z,26.2168,-96.4998,27.3,11144222 
TABS,ioos:station:wmo:42045:1,2003-06-05T23:39:00Z,26.2168,-96.4998,27.4,11144222 
TABS,ioos:station:wmo:42045:1,2003-06-06T00:09:00Z,26.2168,-96.4998,27.4,11144222 
TABS,ioos:station:wmo:42045:1,2003-06-06T00:39:00Z,26.2168,-96.4998,27.5,11144222 
TABS,ioos:station:wmo:42045:1,2003-06-06T01:09:00Z,26.2168,-96.4998,27.4,11144222 
TABS,ioos:station:wmo:42045:1,2003-06-06T01:39:00Z,26.2168,-96.4998,27.5,11144222 
TABS,ioos:station:wmo:42045:1,2003-06-06T02:09:00Z,26.2168,-96.4998,26.7,11144222 
TABS,ioos:station:wmo:42045:1,2003-06-06T02:39:00Z,26.2168,-96.4998,26.7,11144222 
TABS,ioos:station:wmo:42045:1,2003-06-06T03:09:00Z,26.2168,-96.4998,26.9,11144222 
TABS,ioos:station:wmo:42045:1,2003-06-06T03:39:00Z,26.2168,-96.4998,27.0,11144222 
TABS,ioos:station:wmo:42045:1,2003-06-06T04:09:00Z,26.2168,-96.4998,27.1,11144222 
TABS,ioos:station:wmo:42045:1,2003-06-06T04:39:00Z,26.2168,-96.4998,27.0,11144222 
TABS,ioos:station:wmo:42045:1,2003-06-06T05:09:00Z,26.2168,-96.4998,27.2,11144222 
TABS,ioos:station:wmo:42045:1,2003-06-06T05:39:00Z,26.2168,-96.4998,27.5,11144222 
TABS,ioos:station:wmo:42045:1,2003-06-06T06:09:00Z,26.2168,-96.4998,27.6,11144222 
TABS,ioos:station:wmo:42045:1,2003-06-06T06:39:00Z,26.2168,-96.4998,27.8,11144222 
TABS,ioos:station:wmo:42045:1,2003-06-06T07:09:00Z,26.2168,-96.4998,27.7,11144222 
TABS,ioos:station:wmo:42045:1,2003-06-06T07:39:00Z,26.2168,-96.4998,27.6,11144222 
TABS,ioos:station:wmo:42045:1,2003-06-06T08:09:00Z,26.2168,-96.4998,27.6,11144222 
TABS,ioos:station:wmo:42045:1,2003-06-06T08:39:00Z,26.2168,-96.4998,27.5,11144222 
TABS,ioos:station:wmo:42045:1,2003-06-06T09:09:00Z,26.2168,-96.4998,27.7,11144222 
TABS,ioos:station:wmo:42045:1,2003-06-06T09:39:00Z,26.2168,-96.4998,27.8,11144222 
TABS,ioos:station:wmo:42045:1,2003-06-06T10:09:00Z,26.2168,-96.4998,27.8,11144222 
TABS,ioos:station:wmo:42045:1,2003-06-06T10:39:00Z,26.2168,-96.4998,27.8,11144222 
TABS,ioos:station:wmo:42045:1,2003-06-06T11:09:00Z,26.2168,-96.4998,27.8,11144222 
TABS,ioos:station:wmo:42045:1,2003-06-06T11:39:00Z,26.2168,-96.4998,27.8,11144222 
TABS,ioos:station:wmo:42045:1,2003-06-06T12:09:00Z,26.2168,-96.4998,27.8,11144222 
TABS,ioos:station:wmo:42045:1,2003-06-06T12:39:00Z,26.2168,-96.4998,27.9,11144222 
TABS,ioos:station:wmo:42045:1,2003-06-06T13:09:00Z,26.2168,-96.4998,27.5,11144222 
TABS,ioos:station:wmo:42045:1,2003-06-06T13:39:00Z,26.2168,-96.4998,27.4,11144222 
TABS,ioos:station:wmo:42045:1,2003-06-06T14:09:00Z,26.2168,-96.4998,27.7,11144222 
TABS,ioos:station:wmo:42045:1,2003-06-06T14:39:00Z,26.2168,-96.4998,27.4,11144222 
TABS,ioos:station:wmo:42045:1,2003-06-06T15:09:00Z,26.2168,-96.4998,27.7,11144222 
TABS,ioos:station:wmo:42045:1,2003-06-06T15:39:00Z,26.2168,-96.4998,27.7,11144222 
TABS,ioos:station:wmo:42045:1,2003-06-06T16:09:00Z,26.2168,-96.4998,27.9,11144222 
TABS,ioos:station:wmo:42045:1,2003-06-06T16:39:00Z,26.2168,-96.4998,28.0,11144222 
TABS,ioos:station:wmo:42045:1,2003-06-06T17:09:00Z,26.2168,-96.4998,28.1,11144222 
TABS,ioos:station:wmo:42045:1,2003-06-06T17:39:00Z,26.2168,-96.4998,27.7,11144222 
TABS,ioos:station:wmo:42045:1,2003-06-06T18:09:00Z,26.2168,-96.4998,27.6,11144222 
TABS,ioos:station:wmo:42045:1,2003-06-06T18:39:00Z,26.2168,-96.4998,27.5,11144222 
TABS,ioos:station:wmo:42045:1,2003-06-06T19:09:00Z,26.2168,-96.4998,27.7,11144222 
TABS,ioos:station:wmo:42045:1,2003-06-06T19:39:00Z,26.2168,-96.4998,27.7,11144222 
TABS,ioos:station:wmo:42045:1,2003-06-06T20:09:00Z,26.2168,-96.4998,27.8,11144222 
TABS,ioos:station:wmo:42045:1,2003-06-06T20:39:00Z,26.2168,-96.4998,27.9,11144222 
TABS,ioos:station:wmo:42045:1,2003-06-06T21:09:00Z,26.2168,-96.4998,27.6,11144222 
TABS,ioos:station:wmo:42045:1,2003-06-06T21:39:00Z,26.2168,-96.4998,27.3,11144222 
TABS,ioos:station:wmo:42045:1,2003-06-06T22:09:00Z,26.2168,-96.4998,27.4,11144222 
TABS,ioos:station:wmo:42045:1,2003-06-06T22:39:00Z,26.2168,-96.4998,27.4,11144222 
TABS,ioos:station:wmo:42045:1,2003-06-06T23:09:00Z,26.2168,-96.4998,27.4,11144222 
TABS,ioos:station:wmo:42045:1,2003-06-06T23:39:00Z,26.2168,-96.4998,27.6,11144222 
TABS,ioos:station:wmo:42045:1,2003-06-07T00:09:00Z,26.2168,-96.4998,27.6,11144222 
TABS,ioos:station:wmo:42045:1,2003-06-07T00:39:00Z,26.2168,-96.4998,27.6,11144222 
TABS,ioos:station:wmo:42045:1,2003-06-07T01:09:00Z,26.2168,-96.4998,27.6,11144222 